"Pseudo-MPEC" for P22oZGq

Created 2026 Aug 8 16:35:12 UT using Find_Orb

Click here for an explanation of pseudo-MPECs

 
 Astrometry: 
     P22oZGq*0C2026 08 08.56734300 13 32.178-13 21 30.33   ~88FZ 20.61wXNEOCPF52
     P22oZGq 0C2026 08 08.57824500 13 32.686-13 21 40.13   ~88FZ 20.37wXNEOCPF52
     P22oZGq 0C2026 08 08.58908800 13 33.190-13 21 50.03   ~88FZ 20.82wXNEOCPF52
     P22oZGq 0C2026 08 08.59991700 13 33.690-13 21 59.94   ~88FZ 20.97wXNEOCPF52

Station data:
(F52) Pan-STARRS 2, Haleakala  (N20.707382 W156.255910)  US/Hawaii.
   Observers J. Herman, T. Lowe, P. Minguez, A. Schultz, I. Smith. Measurers
   K. Chambers, T. de Boer, J. Fairlamb, H. Gao, M. Huber, C.-C. Lin, E.
   Magnier, Y. Ramanjooloo, R. Wainscoat, R. Weryk. 1.8-m Ritchey-Chrétien +
   CCD.

Orbital elements:  P22oZGq
   Perihelion 2026 Aug 28.128666 +/- 57.1 TT =  3:05:16.7 (JD 2461280.628666)
Epoch 2026 Aug  9.0 TT = JDT 2461261.5   Earth MOID: 0.4942      AutoNEOCP
M 352.046151482 +/- 38              (J2000 ecliptic)
n   0.415807802 +/- 0.399           Peri.  223.991821 +/- 80
a   1.777764759 +/- 1.14            Node   118.335439 +/- 60
e   0.16281318 +/- 0.266            Incl.    9.846016 +/- 15
P   2.370/865.768d         H 19.61  G  0.15   U 12.1  SR
q 1.488321219 +/- 0.654    Q 2.067208300 +/- 43.6
From 4 observations 2026 Aug. 8 (46.9 min); mean residual 0".04
Residuals in arcseconds: 
260808 F52  .02-  .06-    260808 F52  .02+  .03+    
260808 F52  .01+  .07+    260808 F52  .02-  .04-    

Ephemerides (geocentric):
Date (UTC) HH   RA             Dec           delta  r     elong  mag " sig PA
---- --------  ------------   ------------  ------ ------ -----  --- --------
2026 08 08 17  00 13 39.577   -13 23 30.63  .58457 1.4924 136.3 20.6 89.0 122
2026 08 08 18  00 13 41.747   -13 24 08.75  .58439 1.4924 136.4 20.6  108 115
2026 08 08 19  00 13 43.913   -13 24 46.91  .58422 1.4924 136.4 20.6  128 111
2026 08 08 20  00 13 46.075   -13 25 25.10  .58404 1.4924 136.4 20.6  149 107
2026 08 08 21  00 13 48.233   -13 26 03.33  .58386 1.4923 136.5 20.6  171 105
2026 08 08 22  00 13 50.386   -13 26 41.60  .58368 1.4923 136.5 20.6  193 102
2026 08 08 23  00 13 52.536   -13 27 19.90  .58350 1.4923 136.5 20.6  216 100
2026 08 09 00  00 13 54.681   -13 27 58.23  .58333 1.4923 136.5 20.6  240  99
2026 08 09 01  00 13 56.822   -13 28 36.61  .58315 1.4923 136.6 20.5  264  97
2026 08 09 02  00 13 58.958   -13 29 15.02  .58297 1.4923 136.6 20.5  289  96
2026 08 09 03  00 14 01.091   -13 29 53.46  .58279 1.4922 136.6 20.5  315  95
2026 08 09 04  00 14 03.219   -13 30 31.94  .58262 1.4922 136.7 20.5  342  94
2026 08 09 05  00 14 05.343   -13 31 10.46  .58244 1.4922 136.7 20.5  370  93
2026 08 09 06  00 14 07.463   -13 31 49.01  .58226 1.4922 136.7 20.5  400  92
2026 08 09 07  00 14 09.578   -13 32 27.60  .58209 1.4922 136.8 20.5  431  91
2026 08 09 08  00 14 11.689   -13 33 06.23  .58191 1.4921 136.8 20.5  464  90
2026 08 09 09  00 14 13.796   -13 33 44.89  .58174 1.4921 136.8 20.5  499  89
2026 08 09 10  00 14 15.899   -13 34 23.58  .58156 1.4921 136.9 20.5  537  88
2026 08 09 11  00 14 17.998   -13 35 02.32  .58139 1.4921 136.9 20.5  578  87
2026 08 09 12  00 14 20.092   -13 35 41.08  .58121 1.4921 136.9 20.5  623  85
2026 08 09 13  00 14 22.182   -13 36 19.89  .58103 1.4921 136.9 20.5  673  84
2026 08 09 14  00 14 24.268   -13 36 58.72  .58086 1.4920 137.0 20.5  729  83
2026 08 09 15  00 14 26.349   -13 37 37.60  .58069 1.4920 137.0 20.5  792  82
2026 08 09 16  00 14 28.427   -13 38 16.51  .58051 1.4920 137.0 20.5  863  81
2026 08 09 17  00 14 30.500   -13 38 55.45  .58034 1.4920 137.1 20.5  946  79
2026 08 09 18  00 14 32.568   -13 39 34.43  .58016 1.4920 137.1 20.5 1045  78
2026 08 09 19  00 14 34.633   -13 40 13.45  .57999 1.4920 137.1 20.5 1162  77
2026 08 09 20  00 14 36.693   -13 40 52.50  .57982 1.4919 137.2 20.5 1307  76
2026 08 09 21  00 14 38.749   -13 41 31.58  .57964 1.4919 137.2 20.5 1489  74
2026 08 09 22  00 14 40.800   -13 42 10.70  .57947 1.4919 137.2 20.5 1724  73
2026 08 09 23  00 14 42.848   -13 42 49.86  .57930 1.4919 137.3 20.5 2042  72
2026 08 10 00  00 14 44.891   -13 43 29.05  .57912 1.4919 137.3 20.5 2492  71
2026 08 10 01  00 14 46.929   -13 44 08.28  .57895 1.4919 137.3 20.5 3176  70
2026 08 10 02  00 14 48.964   -13 44 47.54  .57878 1.4919 137.3 20.5 4328  70
2026 08 10 03  00 14 50.994   -13 45 26.83  .57860 1.4918 137.4 20.5 6629  70
2026 08 10 04  00 14 53.020   -13 46 06.16  .57843 1.4918 137.4 20.5 216'  73
2026 08 10 05  00 14 55.042   -13 46 45.53  .57826 1.4918 137.4 20.5 595'  86
2026 08 10 06  00 14 57.059   -13 47 24.93  .57809 1.4918 137.5 20.5 881'  95
2026 08 10 07  00 14 59.072   -13 48 04.37  .57792 1.4918 137.5 20.5 958'  97
2026 08 10 08  00 15 01.080   -13 48 43.83  .57775 1.4918 137.5 20.5 990'  98
2026 08 10 09  00 15 03.085   -13 49 23.34  .57758 1.4917 137.6 20.5  17d  98
2026 08 10 10  00 15 05.085   -13 50 02.88  .57740 1.4917 137.6 20.5  17d  98
2026 08 10 11  00 15 07.080   -13 50 42.45  .57723 1.4917 137.6 20.5  17d  98
2026 08 10 12  00 15 09.072   -13 51 22.06  .57706 1.4917 137.7 20.5  17d  98
2026 08 10 13  00 15 11.059   -13 52 01.70  .57689 1.4917 137.7 20.5  17d  98
2026 08 10 14  00 15 13.042   -13 52 41.38  .57672 1.4917 137.7 20.5  17d  98
2026 08 10 15  00 15 15.020   -13 53 21.09  .57655 1.4916 137.7 20.5  17d  98
2026 08 10 16  00 15 16.994   -13 54 00.83  .57638 1.4916 137.8 20.5  18d  98